Torna al catalogo

STARLINK-30761

AttivoComunicazioniVLEO
NORAD 58134·PAYLOAD·🇺🇸 United States

Lanciato Oct 22, 2023 da Cape Canaveral Space Force Station

Loading…

Prossimi Passaggi (prossime 24 ore)

TLE

AggiornatoSource: CelesTrak SupGP

Epoca: Sep 15, 2026, 02:12 UTC

1 58134C 23162S   26258.09215278  .00027678  00000+0  10027-2 0  2581
2 58134  42.9995 142.9539 0001364 272.9636  38.7316 15.27559840    18

Traccia STARLINK-30761 in tempo reale con AllMySat

Download on the App Store